Starlink 31138

operational
NORAD ID: 58806 Int'l Des: 2024-012 Owner: SPXS Country: US Constellation: starlink
LEOCIRCULAR

关于 Starlink 31138

正在加载描述...

实时位置

正在加载3D地球...

即将过境

高度历史

Altitude vs Time

uPlot chart will show altitude changes over time

两行轨道根数

1 58806U 24012V 25352.14828938 .00000955 00000-0 44229-4 0 9990
2 58806 43.0027 265.8871 0000381 279.8315 80.2493 15.27564196108763
Epoch: Dec 18, 2025 • Age: 14 hours

当前状态

高度 482.2 km
速度 7.63 km/s
星下点 8.34°N, 82.09°W
发射日期 Jan 15, 2024
运行时间 1.9 years
类型 internet

技术详情

分类 Payload
质量 730.00 kg
干质量 700.00 kg
总质量 730.00 kg
长度 0.30 m
直径 4.10 m
跨度 29.00 m
形状 Box + pan
制造商 SPXS
平台类型 Starlink V2M
阶段状态 In Orbit
所有者/国家 SPXS/US

大型星座

Loading constellations...